When you browse on this site, cookies collect data to enhance your experience and personalize the content and advertising you see.
Visit our Privacy Policy to learn more. By continuing to use the site, you agree to this use of cookies and data.
  • Em Portugal
  • Lista de países
  • Para 7 dias
  • Temperatura da água
  • Mapa do tempo
  • Widgets de tempo
  • user-avatar
    Iniciar Sessão

    Previsão horária em Klinina

    Hoje, 27 Janeiro, Segunda-feira

    Tempo Temperatura Precipitação Vento Pressão Humidade
    00:00 -2°C° 0 mm 1 m/s 699 mmHg 73%
    01:00 -2°C° 0 mm 1 m/s 699 mmHg 73%
    02:00 -2°C° 0 mm 1 m/s 699 mmHg 74%
    03:00 -2°C° 0 mm 1 m/s 698 mmHg 75%
    04:00 -2°C° 0 mm 1 m/s 698 mmHg 76%
    05:00 -2°C° 0 mm 1 m/s 698 mmHg 78%
    06:00 -2°C° 0 mm 1 m/s 698 mmHg 80%
    07:00 -2°C° 0 mm 1 m/s 698 mmHg 83%
    08:00 -1°C° 0 mm 1 m/s 698 mmHg 81%
    09:00 +1°C° 0 mm 1 m/s 698 mmHg 78%
    10:00 +2°C° 0 mm 1 m/s 698 mmHg 76%
    11:00 +2°C° 0 mm 0 m/s 698 mmHg 75%
    12:00 +2°C° 0 mm 0 m/s 698 mmHg 74%
    13:00 +3°C° 0 mm 0 m/s 698 mmHg 73%
    14:00 +2°C° 0 mm 0 m/s 698 mmHg 78%
    15:00 +1°C° 0 mm 0 m/s 697 mmHg 83%
    16:00 0°C° 0 mm 0 m/s 697 mmHg 87%
    17:00 +1°C° 0 mm 1 m/s 697 mmHg 88%
    18:00 0°C° 0 mm 1 m/s 696 mmHg 88%
    19:00 0°C° 0 mm 1 m/s 696 mmHg 89%
    20:00 0°C° 0 mm 1 m/s 696 mmHg 89%
    21:00 0°C° 0 mm 1 m/s 696 mmHg 89%
    22:00 -1°C° 0 mm 1 m/s 695 mmHg 89%
    23:00 -1°C° 0 mm 1 m/s 695 mmHg 89%

    Amanhã, 28 Janeiro, Terça-feira

    Tempo Temperatura Precipitação Vento Pressão Humidade
    00:00 -1°C° 0 mm 1 m/s 694 mmHg 89%
    01:00 -3°C° 0 mm 2 m/s 694 mmHg 89%
    02:00 -3°C° 0 mm 2 m/s 693 mmHg 88%
    03:00 -3°C° 0 mm 2 m/s 693 mmHg 87%
    04:00 -3°C° 0 mm 2 m/s 692 mmHg 87%
    05:00 -3°C° 0 mm 2 m/s 692 mmHg 87%
    06:00 -3°C° 0 mm 2 m/s 692 mmHg 86%
    07:00 -3°C° 0 mm 2 m/s 691 mmHg 86%
    08:00 -2°C° 0 mm 3 m/s 691 mmHg 84%
    09:00 -1°C° 0 mm 3 m/s 690 mmHg 81%
    10:00 0°C° 0 mm 3 m/s 690 mmHg 78%
    11:00 +1°C° 0 mm 3 m/s 689 mmHg 79%
    12:00 +1°C° 0 mm 3 m/s 689 mmHg 80%
    13:00 +1°C° 0 mm 3 m/s 688 mmHg 81%
    14:00 +2°C° 0 mm 2 m/s 688 mmHg 84%
    15:00 +1°C° 0 mm 2 m/s 687 mmHg 86%
    16:00 -1°C° 0 mm 2 m/s 686 mmHg 89%
    17:00 -1°C° 0.2 mm 2 m/s 686 mmHg 92%
    18:00 -1°C° 0.2 mm 2 m/s 686 mmHg 94%
    19:00 -1°C° 0.2 mm 2 m/s 686 mmHg 97%
    20:00 -1°C° 0.4 mm 2 m/s 686 mmHg 97%
    21:00 -1°C° 0.4 mm 2 m/s 686 mmHg 97%
    22:00 -1°C° 0.4 mm 2 m/s 686 mmHg 97%
    23:00 -2°C° 0.1 mm 2 m/s 686 mmHg 93%

    Depois de amanhã, 29 Janeiro, Quarta-feira

    Tempo Temperatura Precipitação Vento Pressão Humidade
    00:00 -2°C° 0.1 mm 3 m/s 686 mmHg 89%
    01:00 -2°C° 0.1 mm 3 m/s 686 mmHg 86%
    02:00 -2°C° 0 mm 3 m/s 686 mmHg 84%
    03:00 -4°C° 0 mm 3 m/s 686 mmHg 83%
    04:00 -4°C° 0 mm 4 m/s 687 mmHg 81%
    05:00 -4°C° 0 mm 3 m/s 687 mmHg 82%
    06:00 -5°C° 0 mm 3 m/s 687 mmHg 84%
    07:00 -6°C° 0 mm 3 m/s 687 mmHg 85%
    08:00 -5°C° 0 mm 3 m/s 688 mmHg 82%
    09:00 -4°C° 0 mm 4 m/s 688 mmHg 80%
    10:00 -4°C° 0 mm 5 m/s 688 mmHg 77%
    11:00 -4°C° 0 mm 5 m/s 689 mmHg 74%
    12:00 -2°C° 0 mm 5 m/s 689 mmHg 71%
    13:00 -1°C° 0 mm 5 m/s 689 mmHg 67%
    14:00 -2°C° 0 mm 5 m/s 689 mmHg 71%
    15:00 -3°C° 0 mm 4 m/s 689 mmHg 74%
    16:00 -3°C° 0 mm 4 m/s 689 mmHg 78%
    17:00 -4°C° 0.1 mm 4 m/s 689 mmHg 82%
    18:00 -4°C° 0.1 mm 3 m/s 689 mmHg 87%
    19:00 -4°C° 0.1 mm 3 m/s 689 mmHg 91%
    20:00 -4°C° 0.5 mm 4 m/s 690 mmHg 93%
    21:00 -4°C° 0.5 mm 4 m/s 690 mmHg 94%
    22:00 -4°C° 0.5 mm 4 m/s 690 mmHg 96%
    23:00 -4°C° 0.7 mm 4 m/s 691 mmHg 96%

    30 Janeiro, Quinta-feira

    Tempo Temperatura Precipitação Vento Pressão Humidade
    00:00 -4°C° 0.7 mm 3 m/s 691 mmHg 96%
    01:00 -4°C° 0.7 mm 3 m/s 692 mmHg 97%
    02:00 -4°C° 0.9 mm 4 m/s 692 mmHg 96%
    03:00 -4°C° 0.9 mm 4 m/s 693 mmHg 96%
    04:00 -5°C° 0.9 mm 5 m/s 694 mmHg 95%
    05:00 -5°C° 0.2 mm 5 m/s 694 mmHg 94%
    06:00 -4°C° 0.2 mm 4 m/s 695 mmHg 94%
    07:00 -5°C° 0.2 mm 4 m/s 695 mmHg 93%
    08:00 -5°C° 0.1 mm 5 m/s 696 mmHg 90%
    09:00 -5°C° 0.1 mm 5 m/s 696 mmHg 88%
    10:00 -5°C° 0.1 mm 5 m/s 697 mmHg 85%
    11:00 -4°C° 0 mm 5 m/s 697 mmHg 82%
    12:00 -4°C° 0 mm 5 m/s 697 mmHg 80%
    13:00 -2°C° 0 mm 5 m/s 697 mmHg 78%
    14:00 -3°C° 0 mm 4 m/s 697 mmHg 80%
    15:00 -2°C° 0 mm 3 m/s 697 mmHg 82%
    16:00 -3°C° 0 mm 2 m/s 697 mmHg 85%
    17:00 -3°C° 0 mm 2 m/s 697 mmHg 84%
    18:00 -4°C° 0 mm 2 m/s 697 mmHg 84%
    19:00 -4°C° 0 mm 2 m/s 697 mmHg 84%
    20:00 -4°C° 0 mm 2 m/s 697 mmHg 84%
    21:00 -4°C° 0 mm 2 m/s 696 mmHg 85%
    22:00 -4°C° 0 mm 2 m/s 696 mmHg 85%
    23:00 -4°C° 0 mm 2 m/s 696 mmHg 85%

    31 Janeiro, Sexta-feira

    Tempo Temperatura Precipitação Vento Pressão Humidade
    00:00 -4°C° 0 mm 2 m/s 696 mmHg 85%
    01:00 -4°C° 0 mm 2 m/s 696 mmHg 85%
    02:00 -4°C° 0 mm 2 m/s 696 mmHg 85%
    03:00 -4°C° 0 mm 2 m/s 696 mmHg 85%
    04:00 -4°C° 0 mm 2 m/s 695 mmHg 85%
    05:00 -3°C° 0 mm 2 m/s 695 mmHg 83%
    06:00 -3°C° 0 mm 2 m/s 695 mmHg 81%
    07:00 -2°C° 0 mm 2 m/s 695 mmHg 80%
    08:00 -2°C° 0 mm 2 m/s 695 mmHg 78%
    09:00 -1°C° 0 mm 2 m/s 695 mmHg 75%
    10:00 +1°C° 0 mm 2 m/s 695 mmHg 73%
    11:00 0°C° 0.3 mm 3 m/s 694 mmHg 77%
    12:00 0°C° 0.3 mm 3 m/s 694 mmHg 81%
    13:00 0°C° 0.3 mm 3 m/s 693 mmHg 85%
    14:00 0°C° 1.1 mm 3 m/s 693 mmHg 88%
    15:00 0°C° 1.1 mm 3 m/s 693 mmHg 92%
    16:00 0°C° 1.1 mm 3 m/s 693 mmHg 95%
    17:00 +1°C° 1 mm 3 m/s 693 mmHg 95%
    18:00 +1°C° 1 mm 3 m/s 693 mmHg 96%
    19:00 +1°C° 1 mm 3 m/s 693 mmHg 96%
    20:00 +2°C° 0.5 mm 3 m/s 694 mmHg 96%
    21:00 +2°C° 0.5 mm 3 m/s 694 mmHg 97%
    22:00 +2°C° 0.5 mm 3 m/s 694 mmHg 97%
    23:00 +2°C° 0.2 mm 3 m/s 695 mmHg 97%

    1 Fevereiro, Sábado

    Tempo Temperatura Precipitação Vento Pressão Humidade
    00:00 +3°C° 0.2 mm 2 m/s 695 mmHg 98%
    01:00 +3°C° 0.2 mm 2 m/s 695 mmHg 98%
    02:00 +2°C° 0.1 mm 2 m/s 696 mmHg 98%
    03:00 +2°C° 0.1 mm 2 m/s 696 mmHg 97%
    04:00 +2°C° 0.1 mm 2 m/s 696 mmHg 97%
    05:00 +2°C° 0 mm 2 m/s 696 mmHg 96%
    06:00 +2°C° 0 mm 2 m/s 696 mmHg 96%
    07:00 +3°C° 0 mm 1 m/s 697 mmHg 95%
    08:00 +3°C° 0 mm 2 m/s 697 mmHg 95%
    09:00 +3°C° 0 mm 2 m/s 697 mmHg 94%
    10:00 +4°C° 0 mm 2 m/s 697 mmHg 94%
    11:00 +4°C° 0 mm 2 m/s 697 mmHg 93%
    12:00 +5°C° 0 mm 2 m/s 697 mmHg 92%
    13:00 +5°C° 0 mm 2 m/s 697 mmHg 91%
    14:00 +5°C° 0 mm 2 m/s 697 mmHg 91%
    15:00 +4°C° 0 mm 2 m/s 697 mmHg 92%
    16:00 +4°C° 0 mm 2 m/s 697 mmHg 93%
    17:00 +3°C° 0 mm 2 m/s 697 mmHg 93%
    18:00 +3°C° 0 mm 2 m/s 697 mmHg 93%
    19:00 +3°C° 0 mm 2 m/s 697 mmHg 94%
    20:00 +3°C° 0 mm 2 m/s 697 mmHg 93%
    21:00 +3°C° 0 mm 2 m/s 697 mmHg 93%
    22:00 +2°C° 0 mm 2 m/s 697 mmHg 93%
    23:00 +3°C° 0.1 mm 2 m/s 696 mmHg 93%
    Mostrar mais